sat.trackr.live / text

‹ back to catalog

ONEWEB-0505

NORAD 54123 · 2022-138L

PAYLOAD ACTIVE UNKNOWN

§ Identity

Operator
Country
UK
Launch date
2022-10-22
Launch site
SRILR
Launch vehicle
Mass (kg)
RCS (m²)

Purposes: comms

External: N2YO · Heavens-Above · Gunter

§ Orbital elements

Epoch: 2026-05-25T03:39:46.776672Z

Period
109.11 min
Inclination
87.9160°
Eccentricity
0.0001670
Mean motion
13.19725064 rev/d
Perigee alt
1,184.5 km
Apogee alt
1,187.0 km
Semi-major
7,563.9 km
B*
-4.1638e-5
RAAN
309.5571°
Arg perigee
78.8560°
Mean anomaly
281.2760°
Rev number
17,377

§ Raw data

ONEWEB-05051 54123U 22138L   26145.15262473 -.00000004  00000+0 -41638-4 0  99902 54123  87.9160 309.5571 0001670  78.8560 281.2760 13.19725064173775

JSON: /api/v1/satellites/54123 · /tle

For live sub-satellite position, see the globe view (requires WebGL).

§ Visibility from observer

Set your observer location to see the next 7 days of passes ≥ 10°. The values pass through the URL so the page stays shareable.

No JS? Fill the form by hand. The geolocation button needs JavaScript.